This demonstration page uses our WeatherBlox Daily Observations layout. Learn more.

41.86663, -103.66717

Hourly Observations for August 13, 2020

Temp ( °F °C ) Dew Point ( °F °C ) Humidity (%) Winds ( mph kmh ) Pressure ( in mb ) Visibility ( mi km ) Precip ( " mm )
12:53 am 00:53 Clear 68 20 57 13.9 68 68 ESE 9 15 29.84 1010 10 16.0934 0 0
1:53 am 01:53 Clear 68 20 55 12.8 63 63 ESE 8 13 29.84 1010 10 16.0934 0 0
2:53 am 02:53 Clear 64 17.8 57 13.9 78 78 Calm 29.86 1011 10 16.0934 0 0
3:53 am 03:53 Clear 64 17.8 59 15 84 84 E 7 11 29.85 1011 10 16.0934 0 0
4:53 am 04:53 Clear 62 16.7 59 15 90 90 E 6 9 29.85 1011 10 16.0934 0 0
5:53 am 05:53 Clear 61 16.1 59 15 93 93 E 5 7 29.87 1011 10 16.0934 0 0
6:53 am 06:53 Sunny 62 16.7 59 15 90 90 SE 5 7 29.9 1012 10 16.0934 0 0
7:53 am 07:53 undefined 68 20 61 16.1 78 78 undefined N/A 29.91 1013 10 16.0934 0 0
8:53 am 08:53 Sunny 75 23.9 58 14.4 55 55 WNW 6 9 29.89 1012 10 16.0934 0 0
9:53 am 09:53 Sunny 82 27.8 48 8.9 31 31 WNW 9 15 29.89 1012 10 16.0934 0 0
10:53 am 10:53 Sunny 86 30 51 10.6 30 30 VRB 5 7 29.89 1012 10 16.0934 0 0
11:53 am 11:53 Sunny 93 33.9 42 5.6 17 17 VRB 7 11 29.86 1011 10 16.0934 0 0
12:53 pm 12:53 Sunny 95 35 37 2.8 13 13 undefined N/A 29.84 1011 10 16.0934 0 0
1:53 pm 13:53 Sunny 97 36.1 37 2.8 12 12 NNW 9 15 29.82 1010 10 16.0934 0 0
2:53 pm 14:53 Sunny 99 37.2 33 0.6 10 10 NNW 7 11 29.8 1009 10 16.0934 0 0
3:53 pm 15:53 Sunny 99 37.2 31 -0.6 9 9 NNW 8 13 29.78 1009 10 16.0934 0 0
4:53 pm 16:53 Sunny 99 37.2 30 -1.1 9 9 N 6 9 29.77 1008 10 16.0934 0 0
5:53 pm 17:53 Sunny 94 34.4 37 2.8 14 14 undefined N/A 29.78 1008 10 16.0934 0 0
6:53 pm 18:53 Sunny 92 33.3 43 6.1 18 18 ESE 5 7 29.77 1008 10 16.0934 0 0
7:53 pm 19:53 Sunny 85 29.4 39 3.9 20 20 SE 7 11 29.77 1008 10 16.0934 0 0
8:53 pm 20:53 Clear 75 23.9 49 9.4 40 40 SSE 7 11 29.79 1009 10 16.0934 0 0
9:53 pm 21:53 Clear 72 22.2 48 8.9 43 43 Calm 29.79 1009 9 14.48406 0 0
10:53 pm 22:53 undefined 77 25 44 6.7 31 31 S 5 7 29.77 1008 10 16.0934 0 0
11:53 pm 23:53 Clear 80 26.7 56 13.3 44 44 SSW 7 11 29.76 1008 10 16.0934 0 0

Powered by AerisWeather